owner,sensor,date,latitude,longitude,vertical_datum,mass_concentration_of_oxygen_in_sea_water,qcFlag 
SCCF RECON,ioos:station:SCCF:56:1,2019-11-01T04:00:00Z,26.4645,-82.1044,1.955,4.73,11111222 
SCCF RECON,ioos:station:SCCF:56:1,2019-11-01T05:00:00Z,26.4645,-82.1044,2.056,4.45,11111222 
SCCF RECON,ioos:station:SCCF:56:1,2019-11-01T06:00:00Z,26.4645,-82.1044,2.14,4.33,11111222 
SCCF RECON,ioos:station:SCCF:56:1,2019-11-01T07:00:00Z,26.4645,-82.1044,2.182,3.88,11111222 
SCCF RECON,ioos:station:SCCF:56:1,2019-11-01T08:00:00Z,26.4645,-82.1044,2.168,3.47,11111222 
SCCF RECON,ioos:station:SCCF:56:1,2019-11-01T09:00:00Z,26.4645,-82.1044,2.094,3.47,11111222 
SCCF RECON,ioos:station:SCCF:56:1,2019-11-01T10:00:00Z,26.4645,-82.1044,1.973,3.66,11111222 
SCCF RECON,ioos:station:SCCF:56:1,2019-11-01T11:00:00Z,26.4645,-82.1044,1.851,3.04,11111222 
SCCF RECON,ioos:station:SCCF:56:1,2019-11-01T12:00:00Z,26.4645,-82.1044,1.719,1.89,11111222 
SCCF RECON,ioos:station:SCCF:56:1,2019-11-01T13:00:00Z,26.4645,-82.1044,1.587,1.07,11111222 
SCCF RECON,ioos:station:SCCF:56:1,2019-11-01T14:00:00Z,26.4645,-82.1044,1.475,0.63,11111222 
SCCF RECON,ioos:station:SCCF:56:1,2019-11-01T15:00:00Z,26.4645,-82.1044,1.385,0.66,11111222 
SCCF RECON,ioos:station:SCCF:56:1,2019-11-01T16:00:00Z,26.4645,-82.1044,1.362,0.75,11111222 
SCCF RECON,ioos:station:SCCF:56:1,2019-11-01T17:00:00Z,26.4645,-82.1044,1.479,0.95,11111222 
SCCF RECON,ioos:station:SCCF:56:1,2019-11-01T18:00:00Z,26.4645,-82.1044,1.633,1.72,11111222 
SCCF RECON,ioos:station:SCCF:56:1,2019-11-01T19:00:00Z,26.4645,-82.1044,1.73,3.16,11111222 
SCCF RECON,ioos:station:SCCF:56:1,2019-11-01T20:00:00Z,26.4645,-82.1044,1.795,3.44,11111222 
SCCF RECON,ioos:station:SCCF:56:1,2019-11-01T21:00:00Z,26.4645,-82.1044,1.864,4.69,11111222 
SCCF RECON,ioos:station:SCCF:56:1,2019-11-01T22:00:00Z,26.4645,-82.1044,1.916,5.65,11111222 
SCCF RECON,ioos:station:SCCF:56:1,2019-11-02T04:00:00Z,26.4645,-82.1044,1.829,3.5,11111222 
SCCF RECON,ioos:station:SCCF:56:1,2019-11-02T05:00:00Z,26.4645,-82.1044,1.92,3.0,11111222 
SCCF RECON,ioos:station:SCCF:56:1,2019-11-02T06:00:00Z,26.4645,-82.1044,2.006,2.67,11111222 
SCCF RECON,ioos:station:SCCF:56:1,2019-11-02T07:00:00Z,26.4645,-82.1044,2.05,3.1,11111222 
SCCF RECON,ioos:station:SCCF:56:1,2019-11-02T08:00:00Z,26.4645,-82.1044,2.053,3.32,11111222 
SCCF RECON,ioos:station:SCCF:56:1,2019-11-02T09:00:00Z,26.4645,-82.1044,2.016,3.26,11111222 
SCCF RECON,ioos:station:SCCF:56:1,2019-11-02T10:00:00Z,26.4645,-82.1044,1.936,3.0,11111222 
SCCF RECON,ioos:station:SCCF:56:1,2019-11-02T11:00:00Z,26.4645,-82.1044,1.871,1.89,11111222 
SCCF RECON,ioos:station:SCCF:56:1,2019-11-02T12:00:00Z,26.4645,-82.1044,1.779,1.82,11111222 
SCCF RECON,ioos:station:SCCF:56:1,2019-11-02T13:00:00Z,26.4645,-82.1044,1.671,1.04,11111222 
SCCF RECON,ioos:station:SCCF:56:1,2019-11-02T14:00:00Z,26.4645,-82.1044,1.568,0.68,11111222 
SCCF RECON,ioos:station:SCCF:56:1,2019-11-02T15:00:00Z,26.4645,-82.1044,1.464,0.97,11111222 
SCCF RECON,ioos:station:SCCF:56:1,2019-11-02T16:00:00Z,26.4645,-82.1044,1.389,0.72,11111222 
SCCF RECON,ioos:station:SCCF:56:1,2019-11-02T17:00:00Z,26.4645,-82.1044,1.39,0.96,11111222 
SCCF RECON,ioos:station:SCCF:56:1,2019-11-02T18:00:00Z,26.4645,-82.1044,1.494,1.54,11111222 
SCCF RECON,ioos:station:SCCF:56:1,2019-11-02T19:00:00Z,26.4645,-82.1044,1.606,3.07,11111222 
SCCF RECON,ioos:station:SCCF:56:1,2019-11-02T20:00:00Z,26.4645,-82.1044,1.7,4.99,11111222 
SCCF RECON,ioos:station:SCCF:56:1,2019-11-02T21:00:00Z,26.4645,-82.1044,1.765,5.29,11111222 
SCCF RECON,ioos:station:SCCF:56:1,2019-11-02T22:00:00Z,26.4645,-82.1044,1.836,5.53,11111222 
SCCF RECON,ioos:station:SCCF:56:1,2019-11-03T04:00:00Z,26.4645,-82.1044,1.776,4.26,11111222 
SCCF RECON,ioos:station:SCCF:56:1,2019-11-03T05:00:00Z,26.4645,-82.1044,1.771,3.94,11111222 
SCCF RECON,ioos:station:SCCF:56:1,2019-11-03T06:00:00Z,26.4645,-82.1044,1.806,3.54,11111222 
SCCF RECON,ioos:station:SCCF:56:1,2019-11-03T07:00:00Z,26.4645,-82.1044,1.853,3.02,11111222 
SCCF RECON,ioos:station:SCCF:56:1,2019-11-03T08:00:00Z,26.4645,-82.1044,1.89,2.4,11111222 
SCCF RECON,ioos:station:SCCF:56:1,2019-11-03T09:00:00Z,26.4645,-82.1044,1.895,2.26,11111222 
SCCF RECON,ioos:station:SCCF:56:1,2019-11-03T10:00:00Z,26.4645,-82.1044,1.866,2.5,11111222 
SCCF RECON,ioos:station:SCCF:56:1,2019-11-03T11:00:00Z,26.4645,-82.1044,1.831,2.07,11111222 
SCCF RECON,ioos:station:SCCF:56:1,2019-11-03T12:00:00Z,26.4645,-82.1044,1.783,2.41,11111222 
SCCF RECON,ioos:station:SCCF:56:1,2019-11-03T13:00:00Z,26.4645,-82.1044,1.705,2.19,11111222 
SCCF RECON,ioos:station:SCCF:56:1,2019-11-03T14:00:00Z,26.4645,-82.1044,1.616,1.33,11111222 
SCCF RECON,ioos:station:SCCF:56:1,2019-11-03T15:00:00Z,26.4645,-82.1044,1.528,0.85,11111222 
SCCF RECON,ioos:station:SCCF:56:1,2019-11-03T16:00:00Z,26.4645,-82.1044,1.442,0.97,11111222 
SCCF RECON,ioos:station:SCCF:56:1,2019-11-03T17:00:00Z,26.4645,-82.1044,1.369,1.7,11111222 
SCCF RECON,ioos:station:SCCF:56:1,2019-11-03T18:00:00Z,26.4645,-82.1044,1.361,2.12,11111222 
SCCF RECON,ioos:station:SCCF:56:1,2019-11-03T19:00:00Z,26.4645,-82.1044,1.454,2.25,11111222 
SCCF RECON,ioos:station:SCCF:56:1,2019-11-03T20:00:00Z,26.4645,-82.1044,1.564,3.78,11111222 
SCCF RECON,ioos:station:SCCF:56:1,2019-11-03T21:00:00Z,26.4645,-82.1044,1.664,4.6,11111222 
SCCF RECON,ioos:station:SCCF:56:1,2019-11-03T22:00:00Z,26.4645,-82.1044,1.742,4.57,11111222 
SCCF RECON,ioos:station:SCCF:56:1,2019-11-04T05:00:00Z,26.4645,-82.1044,1.807,2.28,11111222 
SCCF RECON,ioos:station:SCCF:56:1,2019-11-04T16:00:00Z,26.4645,-82.1044,1.643,1.19,11111222 
SCCF RECON,ioos:station:SCCF:56:1,2019-11-04T17:00:00Z,26.4645,-82.1044,1.564,1.19,11111222 
SCCF RECON,ioos:station:SCCF:56:1,2019-11-04T18:00:00Z,26.4645,-82.1044,1.503,1.39,11111222 
SCCF RECON,ioos:station:SCCF:56:1,2019-11-04T19:00:00Z,26.4645,-82.1044,1.505,1.81,11111222 
SCCF RECON,ioos:station:SCCF:56:1,2019-11-04T20:00:00Z,26.4645,-82.1044,1.588,2.33,11111222 
SCCF RECON,ioos:station:SCCF:56:1,2019-11-04T21:00:00Z,26.4645,-82.1044,1.697,3.92,11111222 
SCCF RECON,ioos:station:SCCF:56:1,2019-11-04T22:00:00Z,26.4645,-82.1044,1.78,6.07,11111222 
SCCF RECON,ioos:station:SCCF:56:1,2019-11-05T05:00:00Z,26.4645,-82.1044,1.917,2.77,11111222 
SCCF RECON,ioos:station:SCCF:56:1,2019-11-05T06:00:00Z,26.4645,-82.1044,1.873,2.54,11111222 
SCCF RECON,ioos:station:SCCF:56:1,2019-11-05T07:00:00Z,26.4645,-82.1044,1.834,2.31,11111222 
SCCF RECON,ioos:station:SCCF:56:1,2019-11-05T08:00:00Z,26.4645,-82.1044,1.844,1.9,11111222 
SCCF RECON,ioos:station:SCCF:56:1,2019-11-05T09:00:00Z,26.4645,-82.1044,1.923,1.96,11111222 
SCCF RECON,ioos:station:SCCF:56:1,2019-11-05T10:00:00Z,26.4645,-82.1044,1.992,1.69,11111222 
SCCF RECON,ioos:station:SCCF:56:1,2019-11-05T11:00:00Z,26.4645,-82.1044,2.037,2.3,11111222 
SCCF RECON,ioos:station:SCCF:56:1,2019-11-05T12:00:00Z,26.4645,-82.1044,2.065,2.44,11111222 
SCCF RECON,ioos:station:SCCF:56:1,2019-11-05T13:00:00Z,26.4645,-82.1044,2.034,2.31,11111222 
SCCF RECON,ioos:station:SCCF:56:1,2019-11-05T14:00:00Z,26.4645,-82.1044,1.971,1.99,11111222 
SCCF RECON,ioos:station:SCCF:56:1,2019-11-05T15:00:00Z,26.4645,-82.1044,1.917,2.5,11111222 
SCCF RECON,ioos:station:SCCF:56:1,2019-11-05T16:00:00Z,26.4645,-82.1044,1.851,1.72,11111222 
SCCF RECON,ioos:station:SCCF:56:1,2019-11-05T17:00:00Z,26.4645,-82.1044,1.776,1.89,11111222 
SCCF RECON,ioos:station:SCCF:56:1,2019-11-05T18:00:00Z,26.4645,-82.1044,1.691,1.69,11111222 
SCCF RECON,ioos:station:SCCF:56:1,2019-11-05T19:00:00Z,26.4645,-82.1044,1.617,1.45,11111222 
SCCF RECON,ioos:station:SCCF:56:1,2019-11-05T20:00:00Z,26.4645,-82.1044,1.596,1.57,11111222 
SCCF RECON,ioos:station:SCCF:56:1,2019-11-05T21:00:00Z,26.4645,-82.1044,1.625,1.78,11111222 
SCCF RECON,ioos:station:SCCF:56:1,2019-11-05T22:00:00Z,26.4645,-82.1044,1.729,2.27,11111222 
SCCF RECON,ioos:station:SCCF:56:1,2019-11-06T05:00:00Z,26.4645,-82.1044,1.89,2.98,11111222 
SCCF RECON,ioos:station:SCCF:56:1,2019-11-06T06:00:00Z,26.4645,-82.1044,1.801,2.58,11111222 
SCCF RECON,ioos:station:SCCF:56:1,2019-11-06T07:00:00Z,26.4645,-82.1044,1.738,2.08,11111222 
SCCF RECON,ioos:station:SCCF:56:1,2019-11-06T08:00:00Z,26.4645,-82.1044,1.691,1.55,11111222 
SCCF RECON,ioos:station:SCCF:56:1,2019-11-06T09:00:00Z,26.4645,-82.1044,1.717,1.05,11111222 
SCCF RECON,ioos:station:SCCF:56:1,2019-11-06T10:00:00Z,26.4645,-82.1044,1.78,0.9,11111222 
SCCF RECON,ioos:station:SCCF:56:1,2019-11-06T11:00:00Z,26.4645,-82.1044,1.857,0.86,11111222 
SCCF RECON,ioos:station:SCCF:56:1,2019-11-06T12:00:00Z,26.4645,-82.1044,1.917,0.9,11111222 
SCCF RECON,ioos:station:SCCF:56:1,2019-11-06T13:00:00Z,26.4645,-82.1044,1.942,1.06,11111222 
SCCF RECON,ioos:station:SCCF:56:1,2019-11-06T14:00:00Z,26.4645,-82.1044,1.932,1.03,11111222 
SCCF RECON,ioos:station:SCCF:56:1,2019-11-06T15:00:00Z,26.4645,-82.1044,1.888,1.21,11111222 
SCCF RECON,ioos:station:SCCF:56:1,2019-11-06T16:00:00Z,26.4645,-82.1044,1.828,1.1,11111222 
SCCF RECON,ioos:station:SCCF:56:1,2019-11-06T17:00:00Z,26.4645,-82.1044,1.756,1.04,11111222 
SCCF RECON,ioos:station:SCCF:56:1,2019-11-06T18:00:00Z,26.4645,-82.1044,1.67,1.4,11111222 
SCCF RECON,ioos:station:SCCF:56:1,2019-11-06T19:00:00Z,26.4645,-82.1044,1.583,1.21,11111222 
SCCF RECON,ioos:station:SCCF:56:1,2019-11-06T20:00:00Z,26.4645,-82.1044,1.53,1.48,11111222 
SCCF RECON,ioos:station:SCCF:56:1,2019-11-06T21:00:00Z,26.4645,-82.1044,1.529,1.48,11111222 
SCCF RECON,ioos:station:SCCF:56:1,2019-11-06T22:00:00Z,26.4645,-82.1044,1.614,2.15,11111222 
SCCF RECON,ioos:station:SCCF:56:1,2019-11-07T05:00:00Z,26.4645,-82.1044,1.903,2.72,11111222 
SCCF RECON,ioos:station:SCCF:56:1,2019-11-07T06:00:00Z,26.4645,-82.1044,1.81,2.49,11111222 
SCCF RECON,ioos:station:SCCF:56:1,2019-11-07T07:00:00Z,26.4645,-82.1044,1.71,1.74,11111222 
SCCF RECON,ioos:station:SCCF:56:1,2019-11-07T08:00:00Z,26.4645,-82.1044,1.64,1.21,11111222 
SCCF RECON,ioos:station:SCCF:56:1,2019-11-07T09:00:00Z,26.4645,-82.1044,1.617,0.86,11111222 
SCCF RECON,ioos:station:SCCF:56:1,2019-11-07T10:00:00Z,26.4645,-82.1044,1.665,0.8,11111222 
SCCF RECON,ioos:station:SCCF:56:1,2019-11-07T11:00:00Z,26.4645,-82.1044,1.773,0.78,11111222 
SCCF RECON,ioos:station:SCCF:56:1,2019-11-07T12:00:00Z,26.4645,-82.1044,1.865,0.84,11111222 
SCCF RECON,ioos:station:SCCF:56:1,2019-11-07T13:00:00Z,26.4645,-82.1044,1.96,0.95,11111222 
SCCF RECON,ioos:station:SCCF:56:1,2019-11-07T14:00:00Z,26.4645,-82.1044,2.012,1.36,11111222 
SCCF RECON,ioos:station:SCCF:56:1,2019-11-07T15:00:00Z,26.4645,-82.1044,1.999,1.44,11111222 
SCCF RECON,ioos:station:SCCF:56:1,2019-11-07T16:00:00Z,26.4645,-82.1044,1.952,1.95,11111222 
SCCF RECON,ioos:station:SCCF:56:1,2019-11-07T17:00:00Z,26.4645,-82.1044,1.862,2.44,11111222 
SCCF RECON,ioos:station:SCCF:56:1,2019-11-07T18:00:00Z,26.4645,-82.1044,1.772,1.97,11111222 
SCCF RECON,ioos:station:SCCF:56:1,2019-11-07T19:00:00Z,26.4645,-82.1044,1.672,2.3,11111222 
SCCF RECON,ioos:station:SCCF:56:1,2019-11-07T20:00:00Z,26.4645,-82.1044,1.607,1.61,11111222 
SCCF RECON,ioos:station:SCCF:56:1,2019-11-07T21:00:00Z,26.4645,-82.1044,1.571,1.34,11111222 
SCCF RECON,ioos:station:SCCF:56:1,2019-11-07T22:00:00Z,26.4645,-82.1044,1.593,1.57,11111222 
SCCF RECON,ioos:station:SCCF:56:1,2019-11-08T05:00:00Z,26.4645,-82.1044,2.006,2.89,11111222 
SCCF RECON,ioos:station:SCCF:56:1,2019-11-08T06:00:00Z,26.4645,-82.1044,1.9,2.57,11111222 
SCCF RECON,ioos:station:SCCF:56:1,2019-11-08T07:00:00Z,26.4645,-82.1044,1.784,2.61,11111222 
SCCF RECON,ioos:station:SCCF:56:1,2019-11-08T08:00:00Z,26.4645,-82.1044,1.688,1.58,11111222 
SCCF RECON,ioos:station:SCCF:56:1,2019-11-08T09:00:00Z,26.4645,-82.1044,1.615,1.07,11111222 
SCCF RECON,ioos:station:SCCF:56:1,2019-11-08T10:00:00Z,26.4645,-82.1044,1.582,0.71,11111222 
SCCF RECON,ioos:station:SCCF:56:1,2019-11-08T11:00:00Z,26.4645,-82.1044,1.669,0.63,11111222 
SCCF RECON,ioos:station:SCCF:56:1,2019-11-08T12:00:00Z,26.4645,-82.1044,1.819,0.67,11111222 
SCCF RECON,ioos:station:SCCF:56:1,2019-11-08T13:00:00Z,26.4645,-82.1044,1.953,0.76,11111222 
SCCF RECON,ioos:station:SCCF:56:1,2019-11-08T14:00:00Z,26.4645,-82.1044,2.03,0.87,11111222 
SCCF RECON,ioos:station:SCCF:56:1,2019-11-08T15:00:00Z,26.4645,-82.1044,2.076,1.13,11111222 
SCCF RECON,ioos:station:SCCF:56:1,2019-11-08T16:00:00Z,26.4645,-82.1044,2.081,1.45,11111222 
SCCF RECON,ioos:station:SCCF:56:1,2019-11-08T17:00:00Z,26.4645,-82.1044,2.033,1.69,11111222 
SCCF RECON,ioos:station:SCCF:56:1,2019-11-08T18:00:00Z,26.4645,-82.1044,1.939,1.86,11111222 
SCCF RECON,ioos:station:SCCF:56:1,2019-11-08T19:00:00Z,26.4645,-82.1044,1.814,2.49,11111222 
SCCF RECON,ioos:station:SCCF:56:1,2019-11-08T20:00:00Z,26.4645,-82.1044,1.73,2.37,11111222 
SCCF RECON,ioos:station:SCCF:56:1,2019-11-08T21:00:00Z,26.4645,-82.1044,1.668,1.7,11111222 
SCCF RECON,ioos:station:SCCF:56:1,2019-11-08T22:00:00Z,26.4645,-82.1044,1.648,1.47,11111222 
SCCF RECON,ioos:station:SCCF:56:1,2019-11-09T05:00:00Z,26.4645,-82.1044,2.007,2.09,11111222 
SCCF RECON,ioos:station:SCCF:56:1,2019-11-09T06:00:00Z,26.4645,-82.1044,1.929,2.04,11111222 
SCCF RECON,ioos:station:SCCF:56:1,2019-11-09T07:00:00Z,26.4645,-82.1044,1.822,1.67,11111222 
SCCF RECON,ioos:station:SCCF:56:1,2019-11-09T08:00:00Z,26.4645,-82.1044,1.707,1.2,11111222 
SCCF RECON,ioos:station:SCCF:56:1,2019-11-09T09:00:00Z,26.4645,-82.1044,1.614,0.71,11111222 
SCCF RECON,ioos:station:SCCF:56:1,2019-11-09T10:00:00Z,26.4645,-82.1044,1.553,0.66,11111222 
SCCF RECON,ioos:station:SCCF:56:1,2019-11-09T11:00:00Z,26.4645,-82.1044,1.523,0.44,11111222 
SCCF RECON,ioos:station:SCCF:56:1,2019-11-09T12:00:00Z,26.4645,-82.1044,1.565,0.55,11111222 
SCCF RECON,ioos:station:SCCF:56:1,2019-11-09T13:00:00Z,26.4645,-82.1044,1.71,0.7,11111222 
SCCF RECON,ioos:station:SCCF:56:1,2019-11-09T14:00:00Z,26.4645,-82.1044,1.818,0.88,11111222 
SCCF RECON,ioos:station:SCCF:56:1,2019-11-09T15:00:00Z,26.4645,-82.1044,1.886,1.1,11111222 
SCCF RECON,ioos:station:SCCF:56:1,2019-11-09T16:00:00Z,26.4645,-82.1044,1.921,1.29,11111222 
SCCF RECON,ioos:station:SCCF:56:1,2019-11-09T17:00:00Z,26.4645,-82.1044,1.912,1.43,11111222 
SCCF RECON,ioos:station:SCCF:56:1,2019-11-09T18:00:00Z,26.4645,-82.1044,1.792,1.55,11111222 
SCCF RECON,ioos:station:SCCF:56:1,2019-11-09T19:00:00Z,26.4645,-82.1044,1.684,1.64,11111222 
SCCF RECON,ioos:station:SCCF:56:1,2019-11-09T20:00:00Z,26.4645,-82.1044,1.593,1.07,11111222 
SCCF RECON,ioos:station:SCCF:56:1,2019-11-09T21:00:00Z,26.4645,-82.1044,1.552,0.96,11111222 
SCCF RECON,ioos:station:SCCF:56:1,2019-11-09T22:00:00Z,26.4645,-82.1044,1.545,0.94,11111222 
SCCF RECON,ioos:station:SCCF:56:1,2019-11-10T05:00:00Z,26.4645,-82.1044,2.044,1.49,11111222 
SCCF RECON,ioos:station:SCCF:56:1,2019-11-10T06:00:00Z,26.4645,-82.1044,1.95,1.55,11111222 
SCCF RECON,ioos:station:SCCF:56:1,2019-11-10T07:00:00Z,26.4645,-82.1044,1.811,1.33,11111222 
SCCF RECON,ioos:station:SCCF:56:1,2019-11-10T08:00:00Z,26.4645,-82.1044,1.687,1.18,11111222 
SCCF RECON,ioos:station:SCCF:56:1,2019-11-10T09:00:00Z,26.4645,-82.1044,1.58,0.58,11111222 
SCCF RECON,ioos:station:SCCF:56:1,2019-11-10T10:00:00Z,26.4645,-82.1044,1.486,0.49,11111222 
SCCF RECON,ioos:station:SCCF:56:1,2019-11-10T11:00:00Z,26.4645,-82.1044,1.455,0.46,11111222 
SCCF RECON,ioos:station:SCCF:56:1,2019-11-10T12:00:00Z,26.4645,-82.1044,1.522,0.48,11111222 
SCCF RECON,ioos:station:SCCF:56:1,2019-11-10T13:00:00Z,26.4645,-82.1044,1.663,0.71,11111222 
SCCF RECON,ioos:station:SCCF:56:1,2019-11-10T14:00:00Z,26.4645,-82.1044,1.799,1.01,11111222 
SCCF RECON,ioos:station:SCCF:56:1,2019-11-10T15:00:00Z,26.4645,-82.1044,1.912,1.49,11111222 
SCCF RECON,ioos:station:SCCF:56:1,2019-11-10T16:00:00Z,26.4645,-82.1044,2.002,2.15,11111222 
SCCF RECON,ioos:station:SCCF:56:1,2019-11-10T17:00:00Z,26.4645,-82.1044,2.021,2.23,11111222 
SCCF RECON,ioos:station:SCCF:56:1,2019-11-10T18:00:00Z,26.4645,-82.1044,1.973,2.86,11111222 
SCCF RECON,ioos:station:SCCF:56:1,2019-11-10T19:00:00Z,26.4645,-82.1044,1.88,2.65,11111222 
SCCF RECON,ioos:station:SCCF:56:1,2019-11-10T20:00:00Z,26.4645,-82.1044,1.809,2.88,11111222 
SCCF RECON,ioos:station:SCCF:56:1,2019-11-10T21:00:00Z,26.4645,-82.1044,1.748,2.85,11111222 
SCCF RECON,ioos:station:SCCF:56:1,2019-11-10T22:00:00Z,26.4645,-82.1044,1.699,2.81,11111222 
SCCF RECON,ioos:station:SCCF:56:1,2019-11-11T05:00:00Z,26.4645,-82.1044,2.129,2.0,11111222 
SCCF RECON,ioos:station:SCCF:56:1,2019-11-11T06:00:00Z,26.4645,-82.1044,2.044,2.6,11111222 
SCCF RECON,ioos:station:SCCF:56:1,2019-11-11T07:00:00Z,26.4645,-82.1044,1.912,2.85,11111222 
SCCF RECON,ioos:station:SCCF:56:1,2019-11-11T08:00:00Z,26.4645,-82.1044,1.772,2.47,11111222 
SCCF RECON,ioos:station:SCCF:56:1,2019-11-11T09:00:00Z,26.4645,-82.1044,1.648,1.12,11111222 
SCCF RECON,ioos:station:SCCF:56:1,2019-11-11T10:00:00Z,26.4645,-82.1044,1.547,0.8,11111222 
SCCF RECON,ioos:station:SCCF:56:1,2019-11-11T11:00:00Z,26.4645,-82.1044,1.489,0.6,11111222 
SCCF RECON,ioos:station:SCCF:56:1,2019-11-11T12:00:00Z,26.4645,-82.1044,1.517,0.59,11111222 
SCCF RECON,ioos:station:SCCF:56:1,2019-11-11T13:00:00Z,26.4645,-82.1044,1.631,0.78,11111222 
SCCF RECON,ioos:station:SCCF:56:1,2019-11-11T14:00:00Z,26.4645,-82.1044,1.806,1.27,11111222 
SCCF RECON,ioos:station:SCCF:56:1,2019-11-11T15:00:00Z,26.4645,-82.1044,1.936,1.45,11111222 
SCCF RECON,ioos:station:SCCF:56:1,2019-11-11T16:00:00Z,26.4645,-82.1044,2.028,1.96,11111222 
SCCF RECON,ioos:station:SCCF:56:1,2019-11-11T17:00:00Z,26.4645,-82.1044,2.079,2.34,11111222 
SCCF RECON,ioos:station:SCCF:56:1,2019-11-11T18:00:00Z,26.4645,-82.1044,2.08,2.83,11111222 
SCCF RECON,ioos:station:SCCF:56:1,2019-11-11T19:00:00Z,26.4645,-82.1044,2.037,3.3,11111222 
SCCF RECON,ioos:station:SCCF:56:1,2019-11-11T20:00:00Z,26.4645,-82.1044,1.967,2.91,11111222 
SCCF RECON,ioos:station:SCCF:56:1,2019-11-11T21:00:00Z,26.4645,-82.1044,1.906,2.77,11111222 
SCCF RECON,ioos:station:SCCF:56:1,2019-11-11T22:00:00Z,26.4645,-82.1044,1.852,3.05,11111222 
SCCF RECON,ioos:station:SCCF:56:1,2019-11-12T05:00:00Z,26.4645,-82.1044,2.311,2.61,11111222 
SCCF RECON,ioos:station:SCCF:56:1,2019-11-12T06:00:00Z,26.4645,-82.1044,2.235,2.87,11111222 
SCCF RECON,ioos:station:SCCF:56:1,2019-11-12T07:00:00Z,26.4645,-82.1044,2.089,2.91,11111222 
SCCF RECON,ioos:station:SCCF:56:1,2019-11-12T08:00:00Z,26.4645,-82.1044,1.946,2.93,11111222 
SCCF RECON,ioos:station:SCCF:56:1,2019-11-12T09:00:00Z,26.4645,-82.1044,1.808,1.73,11111222 
SCCF RECON,ioos:station:SCCF:56:1,2019-11-12T10:00:00Z,26.4645,-82.1044,1.683,1.28,11111222 
SCCF RECON,ioos:station:SCCF:56:1,2019-11-12T11:00:00Z,26.4645,-82.1044,1.571,0.94,11111222 
SCCF RECON,ioos:station:SCCF:56:1,2019-11-12T12:00:00Z,26.4645,-82.1044,1.508,0.58,11111222 
SCCF RECON,ioos:station:SCCF:56:1,2019-11-12T13:00:00Z,26.4645,-82.1044,1.561,0.54,11111222 
SCCF RECON,ioos:station:SCCF:56:1,2019-11-12T14:00:00Z,26.4645,-82.1044,1.755,0.66,11111222 
SCCF RECON,ioos:station:SCCF:56:1,2019-11-12T15:00:00Z,26.4645,-82.1044,1.915,0.94,11111222 
SCCF RECON,ioos:station:SCCF:56:1,2019-11-12T16:00:00Z,26.4645,-82.1044,2.034,1.55,11111222 
SCCF RECON,ioos:station:SCCF:56:1,2019-11-12T17:00:00Z,26.4645,-82.1044,2.104,2.37,11111222 
SCCF RECON,ioos:station:SCCF:56:1,2019-11-12T18:00:00Z,26.4645,-82.1044,2.127,2.61,11111222 
SCCF RECON,ioos:station:SCCF:56:1,2019-11-12T19:00:00Z,26.4645,-82.1044,2.106,2.98,11111222 
SCCF RECON,ioos:station:SCCF:56:1,2019-11-12T20:00:00Z,26.4645,-82.1044,2.069,3.26,11111222 
SCCF RECON,ioos:station:SCCF:56:1,2019-11-12T21:00:00Z,26.4645,-82.1044,1.986,3.4,11111222 
SCCF RECON,ioos:station:SCCF:56:1,2019-11-12T22:00:00Z,26.4645,-82.1044,1.912,3.15,11111222 
SCCF RECON,ioos:station:SCCF:56:1,2019-11-13T05:00:00Z,26.4645,-82.1044,2.332,2.97,11111222 
SCCF RECON,ioos:station:SCCF:56:1,2019-11-13T06:00:00Z,26.4645,-82.1044,2.336,2.71,11111222 
SCCF RECON,ioos:station:SCCF:56:1,2019-11-13T07:00:00Z,26.4645,-82.1044,2.202,2.6,11111222 
SCCF RECON,ioos:station:SCCF:56:1,2019-11-13T08:00:00Z,26.4645,-82.1044,2.046,2.55,11111222 
SCCF RECON,ioos:station:SCCF:56:1,2019-11-13T09:00:00Z,26.4645,-82.1044,1.891,2.69,11111222 
SCCF RECON,ioos:station:SCCF:56:1,2019-11-13T10:00:00Z,26.4645,-82.1044,1.739,1.47,11111222 
SCCF RECON,ioos:station:SCCF:56:1,2019-11-13T11:00:00Z,26.4645,-82.1044,1.639,1.57,11111222 
SCCF RECON,ioos:station:SCCF:56:1,2019-11-13T12:00:00Z,26.4645,-82.1044,1.536,1.04,11111222 
SCCF RECON,ioos:station:SCCF:56:1,2019-11-13T13:00:00Z,26.4645,-82.1044,1.455,0.68,11111222 
SCCF RECON,ioos:station:SCCF:56:1,2019-11-13T14:00:00Z,26.4645,-82.1044,1.469,0.49,11111222 
SCCF RECON,ioos:station:SCCF:56:1,2019-11-13T15:00:00Z,26.4645,-82.1044,1.624,0.67,11111222 
SCCF RECON,ioos:station:SCCF:56:1,2019-11-13T16:00:00Z,26.4645,-82.1044,1.772,1.13,11111222 
SCCF RECON,ioos:station:SCCF:56:1,2019-11-13T17:00:00Z,26.4645,-82.1044,1.884,1.9,11111222 
SCCF RECON,ioos:station:SCCF:56:1,2019-11-13T18:00:00Z,26.4645,-82.1044,1.972,2.38,11111222 
SCCF RECON,ioos:station:SCCF:56:1,2019-11-13T19:00:00Z,26.4645,-82.1044,2.043,2.81,11111222 
SCCF RECON,ioos:station:SCCF:56:1,2019-11-13T20:00:00Z,26.4645,-82.1044,2.039,2.82,11111222 
SCCF RECON,ioos:station:SCCF:56:1,2019-11-13T21:00:00Z,26.4645,-82.1044,1.96,3.05,11111222 
SCCF RECON,ioos:station:SCCF:56:1,2019-11-13T22:00:00Z,26.4645,-82.1044,1.88,3.14,11111222 
SCCF RECON,ioos:station:SCCF:56:1,2019-11-14T05:00:00Z,26.4645,-82.1044,2.172,2.22,11111222 
SCCF RECON,ioos:station:SCCF:56:1,2019-11-14T06:00:00Z,26.4645,-82.1044,2.221,2.02,11111222 
SCCF RECON,ioos:station:SCCF:56:1,2019-11-14T07:00:00Z,26.4645,-82.1044,2.176,2.25,11111222 
SCCF RECON,ioos:station:SCCF:56:1,2019-11-14T08:00:00Z,26.4645,-82.1044,2.065,2.27,11111222 
SCCF RECON,ioos:station:SCCF:56:1,2019-11-14T09:00:00Z,26.4645,-82.1044,1.92,1.93,11111222 
SCCF RECON,ioos:station:SCCF:56:1,2019-11-14T10:00:00Z,26.4645,-82.1044,1.776,1.91,11111222 
SCCF RECON,ioos:station:SCCF:56:1,2019-11-14T11:00:00Z,26.4645,-82.1044,1.645,0.96,11111222 
SCCF RECON,ioos:station:SCCF:56:1,2019-11-14T12:00:00Z,26.4645,-82.1044,1.525,0.58,11111222 
SCCF RECON,ioos:station:SCCF:56:1,2019-11-14T13:00:00Z,26.4645,-82.1044,1.437,0.49,11111222 
SCCF RECON,ioos:station:SCCF:56:1,2019-11-14T14:00:00Z,26.4645,-82.1044,1.429,0.48,11111222 
SCCF RECON,ioos:station:SCCF:56:1,2019-11-14T15:00:00Z,26.4645,-82.1044,1.588,0.86,11111222 
SCCF RECON,ioos:station:SCCF:56:1,2019-11-14T16:00:00Z,26.4645,-82.1044,1.769,1.8,11111222 
SCCF RECON,ioos:station:SCCF:56:1,2019-11-14T17:00:00Z,26.4645,-82.1044,1.909,3.03,11111222 
SCCF RECON,ioos:station:SCCF:56:1,2019-11-14T18:00:00Z,26.4645,-82.1044,2.006,3.58,11111222 
SCCF RECON,ioos:station:SCCF:56:1,2019-11-14T19:00:00Z,26.4645,-82.1044,2.076,4.04,11111222 
SCCF RECON,ioos:station:SCCF:56:1,2019-11-14T20:00:00Z,26.4645,-82.1044,2.097,4.07,11111222 
SCCF RECON,ioos:station:SCCF:56:1,2019-11-14T21:00:00Z,26.4645,-82.1044,2.085,3.87,11111222 
SCCF RECON,ioos:station:SCCF:56:1,2019-11-14T22:00:00Z,26.4645,-82.1044,2.049,3.77,11111222 
SCCF RECON,ioos:station:SCCF:56:1,2019-11-15T05:00:00Z,26.4645,-82.1044,2.307,2.61,11111222 
SCCF RECON,ioos:station:SCCF:56:1,2019-11-15T06:00:00Z,26.4645,-82.1044,2.335,2.52,11111222 
SCCF RECON,ioos:station:SCCF:56:1,2019-11-15T07:00:00Z,26.4645,-82.1044,2.309,2.38,11111222 
SCCF RECON,ioos:station:SCCF:56:1,2019-11-15T08:00:00Z,26.4645,-82.1044,2.213,2.31,11111222 
SCCF RECON,ioos:station:SCCF:56:1,2019-11-15T09:00:00Z,26.4645,-82.1044,2.104,2.11,11111222 
SCCF RECON,ioos:station:SCCF:56:1,2019-11-15T10:00:00Z,26.4645,-82.1044,1.974,2.23,11111222 
SCCF RECON,ioos:station:SCCF:56:1,2019-11-15T11:00:00Z,26.4645,-82.1044,1.841,1.54,11111222 
SCCF RECON,ioos:station:SCCF:56:1,2019-11-15T12:00:00Z,26.4645,-82.1044,1.722,0.6,11111222 
SCCF RECON,ioos:station:SCCF:56:1,2019-11-15T13:00:00Z,26.4645,-82.1044,1.609,0.33,11111222 
SCCF RECON,ioos:station:SCCF:56:1,2019-11-15T14:00:00Z,26.4645,-82.1044,1.539,0.26,11111222 
SCCF RECON,ioos:station:SCCF:56:1,2019-11-15T15:00:00Z,26.4645,-82.1044,1.562,0.28,11111222 
SCCF RECON,ioos:station:SCCF:56:1,2019-11-15T16:00:00Z,26.4645,-82.1044,1.685,0.32,11111222 